"Time","Value","Approval","myLocation"
"2023-04-20 00:00",5.74974054779804,"Approved","OW071"
"2023-04-20 01:00",5.74917710227349,"Approved","OW071"
"2023-04-20 02:00",5.74829168174895,"Approved","OW071"
"2023-04-20 03:00",5.7453742972244,"Approved","OW071"
"2023-04-20 04:00",5.74370497169986,"Approved","OW071"
"2023-04-20 05:00",5.74239569217532,"Approved","OW071"
"2023-04-20 06:00",5.74079240465077,"Approved","OW071"
"2023-04-20 07:00",5.74090110412623,"Approved","OW071"
"2023-04-20 08:00",5.73771591060168,"Approved","OW071"
"2023-04-20 09:00",5.73531673207714,"Approved","OW071"
"2023-04-20 10:00",5.73274352455259,"Approved","OW071"
"2023-04-20 11:00",5.73080838702805,"Approved","OW071"
"2023-04-20 12:00",5.72894328450351,"Approved","OW071"
"2023-04-20 13:00",5.72973611497896,"Approved","OW071"
"2023-04-20 14:00",5.73237888945442,"Approved","OW071"
"2023-04-20 15:00",5.73476150492987,"Approved","OW071"
"2023-04-20 16:00",5.73714811640533,"Approved","OW071"
"2023-04-20 17:00",5.73600675888079,"Approved","OW071"
"2023-04-20 18:00",5.74656117935624,"Approved","OW071"
"2023-04-20 19:00",5.7451635458317,"Approved","OW071"
"2023-04-20 20:00",5.74684793230715,"Approved","OW071"
"2023-04-20 21:00",5.74742033278261,"Approved","OW071"
"2023-04-20 22:00",5.74778274425806,"Approved","OW071"
"2023-04-20 23:00",5.74639321473352,"Approved","OW071"
"2023-04-21 00:00",5.74945163120898,"Approved","OW071"
"2023-04-21 01:00",5.74849006968443,"Approved","OW071"
"2023-04-21 02:00",5.75164249315989,"Approved","OW071"
"2023-04-21 03:00",5.75209092063534,"Approved","OW071"
"2023-04-21 04:00",5.7520754201108,"Approved","OW071"
"2023-04-21 05:00",5.75207190658625,"Approved","OW071"
"2023-04-21 06:00",5.75259236606171,"Approved","OW071"
"2023-04-21 07:00",5.75228285953717,"Approved","OW071"
"2023-04-21 08:00",5.75146935701262,"Approved","OW071"
"2023-04-21 09:00",5.75234586648808,"Approved","OW071"
"2023-04-21 10:00",5.75344634796353,"Approved","OW071"
"2023-04-21 11:00",5.75239888443899,"Approved","OW071"
"2023-04-21 12:00",5.75182744791445,"Approved","OW071"
"2023-04-21 13:00",5.7505360333899,"Approved","OW071"
"2023-04-21 14:00",5.75031665186536,"Approved","OW071"
"2023-04-21 15:00",5.74978328534081,"Approved","OW071"
"2023-04-21 16:00",5.74895990781627,"Approved","OW071"
"2023-04-21 17:00",5.74719457829173,"Approved","OW071"
"2023-04-21 18:00",5.74461126776718,"Approved","OW071"
"2023-04-21 19:00",5.74777190924264,"Approved","OW071"
"2023-04-21 20:00",5.74738049471809,"Approved","OW071"
"2023-04-21 21:00",5.74479718519355,"Approved","OW071"
"2023-04-21 22:00",5.742887905669,"Approved","OW071"
"2023-04-21 23:00",5.74361458414446,"Approved","OW071"
"2023-04-22 00:00",5.74294925461992,"Approved","OW071"
"2023-04-22 01:00",5.74021799909537,"Approved","OW071"
"2023-04-22 02:00",5.74079073957083,"Approved","OW071"
"2023-04-22 03:00",5.74071542104628,"Approved","OW071"
"2023-04-22 04:00",5.73981612952174,"Approved","OW071"
"2023-04-22 05:00",5.7388868719972,"Approved","OW071"
"2023-04-22 06:00",5.74044351647265,"Approved","OW071"
"2023-04-22 07:00",5.74008417994811,"Approved","OW071"
"2023-04-22 08:00",5.73757290242356,"Approved","OW071"
"2023-04-22 09:00",5.73766561989902,"Approved","OW071"
"2023-04-22 10:00",5.73768430837447,"Approved","OW071"
"2023-04-22 11:00",5.73554306384993,"Approved","OW071"
"2023-04-22 12:00",5.73406386332539,"Approved","OW071"
"2023-04-22 13:00",5.73318466280084,"Approved","OW071"
"2023-04-22 14:00",5.7333154502763,"Approved","OW071"
"2023-04-22 15:00",5.73354623775175,"Approved","OW071"
"2023-04-22 16:00",5.73145505122721,"Approved","OW071"
"2023-04-22 17:00",5.73189382970266,"Approved","OW071"
"2023-04-22 18:00",5.72971462917812,"Approved","OW071"
"2023-04-22 19:00",5.72731145565358,"Approved","OW071"
"2023-04-22 20:00",5.73067820212903,"Approved","OW071"
"2023-04-22 21:00",5.72870299760449,"Approved","OW071"
"2023-04-22 22:00",5.72792779207994,"Approved","OW071"
"2023-04-22 23:00",5.7294985345554,"Approved","OW071"
"2023-04-23 00:00",5.72939524703086,"Approved","OW071"
"2023-04-23 01:00",5.72856399250631,"Approved","OW071"
"2023-04-23 02:00",5.73036869598177,"Approved","OW071"
"2023-04-23 03:00",5.73070736145722,"Approved","OW071"
"2023-04-23 04:00",5.73052405193268,"Approved","OW071"
"2023-04-23 05:00",5.73298868840813,"Approved","OW071"
"2023-04-23 06:00",5.73778517488359,"Approved","OW071"
"2023-04-23 07:00",5.73765968635905,"Approved","OW071"
"2023-04-23 08:00",5.7381942428345,"Approved","OW071"
"2023-04-23 09:00",5.73939072930996,"Approved","OW071"
"2023-04-23 10:00",5.74109920178541,"Approved","OW071"
"2023-04-23 11:00",5.73883375826087,"Approved","OW071"
"2023-04-23 12:00",5.74005832673633,"Approved","OW071"
"2023-04-23 13:00",5.74405681021178,"Approved","OW071"
"2023-04-23 14:00",5.74290335368724,"Approved","OW071"
"2023-04-23 15:00",5.74109396016269,"Approved","OW071"
"2023-04-23 16:00",5.73813462363815,"Approved","OW071"
"2023-04-23 17:00",5.7363493161136,"Approved","OW071"
"2023-04-23 18:00",5.73615202258906,"Approved","OW071"
"2023-04-23 19:00",5.74149656806452,"Approved","OW071"
"2023-04-23 20:00",5.74157107953997,"Approved","OW071"
"2023-04-23 21:00",5.74231362701543,"Approved","OW071"
"2023-04-23 22:00",5.74377215649088,"Approved","OW071"
"2023-04-23 23:00",5.74412668996634,"Approved","OW071"
"2023-04-24 00:00",5.7472391584418,"Approved","OW071"
"2023-04-24 01:00",5.74753564491725,"Approved","OW071"
"2023-04-24 02:00",5.74804411739271,"Approved","OW071"
"2023-04-24 03:00",5.74858055886816,"Approved","OW071"
"2023-04-24 04:00",5.75015495634362,"Approved","OW071"
"2023-04-24 05:00",5.75315732281907,"Approved","OW071"
"2023-04-24 06:00",5.75386168729453,"Approved","OW071"
"2023-04-24 07:00",5.75504607376999,"Approved","OW071"
"2023-04-24 08:00",5.75439250324544,"Approved","OW071"
"2023-04-24 09:00",5.7552728947209,"Approved","OW071"
"2023-04-24 10:00",5.75319934719635,"Approved","OW071"
"2023-04-24 11:00",5.75266386967181,"Approved","OW071"
"2023-04-24 12:00",5.75222639514727,"Approved","OW071"
"2023-04-24 13:00",5.75079491262272,"Approved","OW071"
"2023-04-24 14:00",5.74911748309818,"Approved","OW071"
"2023-04-24 15:00",5.74815203957363,"Approved","OW071"
"2023-04-24 16:00",5.75048060304909,"Approved","OW071"
"2023-04-24 17:00",5.75133114152454,"Approved","OW071"
"2023-04-24 18:00",5.752891669,"Approved","OW071"
"2023-04-24 19:00",5.75358615747546,"Approved","OW071"
"2023-04-24 20:00",5.75865256495091,"Approved","OW071"
"2023-04-24 21:00",5.74953717842637,"Approved","OW071"
"2023-04-24 22:00",5.75461368690182,"Approved","OW071"
"2023-04-24 23:00",5.75303825537728,"Approved","OW071"
"2023-04-25 00:00",5.75202087085273,"Approved","OW071"
"2023-04-25 01:00",5.75328339532819,"Approved","OW071"
"2023-04-25 02:00",5.75385790680365,"Approved","OW071"
"2023-04-25 03:00",5.7522064482791,"Approved","OW071"
"2023-04-25 04:00",5.75203700875456,"Approved","OW071"
"2023-04-25 05:00",5.75276557223001,"Approved","OW071"
"2023-04-25 06:00",5.75199213870547,"Approved","OW071"
"2023-04-25 07:00",5.75076077018093,"Approved","OW071"
"2023-04-25 08:00",5.74914138765638,"Approved","OW071"
"2023-04-25 09:00",5.75144198313184,"Approved","OW071"
"2023-04-25 10:00",5.75159252160729,"Approved","OW071"
"2023-04-25 11:00",5.75010310508275,"Approved","OW071"
"2023-04-25 12:00",5.7502577525582,"Approved","OW071"
"2023-04-25 13:00",5.75055635003366,"Approved","OW071"
"2023-04-25 14:00",5.74940700250912,"Approved","OW071"
"2023-04-25 15:00",5.75013168298457,"Approved","OW071"
"2023-04-25 16:00",5.75016435546003,"Approved","OW071"
"2023-04-25 17:00",5.74901101193548,"Approved","OW071"
"2023-04-25 18:00",5.75091760041094,"Approved","OW071"
"2023-04-25 19:00",5.75251020488639,"Approved","OW071"
"2023-04-25 20:00",5.75334276336185,"Approved","OW071"
"2023-04-25 21:00",5.74959541283731,"Approved","OW071"
"2023-04-25 22:00",5.74953807431276,"Approved","OW071"
"2023-04-25 23:00",5.74676475378822,"Approved","OW071"
"2023-04-26 00:00",5.74921340726367,"Approved","OW071"
"2023-04-26 01:00",5.74658004073913,"Approved","OW071"
"2023-04-26 02:00",5.74591870621459,"Approved","OW071"
"2023-04-26 03:00",5.74761530669004,"Approved","OW071"
"2023-04-26 04:00",5.7491119061655,"Approved","OW071"
"2023-04-26 05:00",5.74853847164095,"Approved","OW071"
"2023-04-26 06:00",5.74982108711641,"Approved","OW071"
"2023-04-26 07:00",5.75386363559187,"Approved","OW071"
"2023-04-26 08:00",5.74846223306732,"Approved","OW071"
"2023-04-26 09:00",5.75200677754278,"Approved","OW071"
"2023-04-26 10:00",5.74890937101823,"Approved","OW071"
"2023-04-26 11:00",5.74708810449369,"Approved","OW071"
"2023-04-26 12:00",5.74702288796914,"Approved","OW071"
"2023-04-26 13:00",5.7440996234446,"Approved","OW071"
"2023-04-26 14:00",5.74434627992006,"Approved","OW071"
"2023-04-26 15:00",5.74637484339551,"Approved","OW071"
"2023-04-26 16:00",5.74823337287097,"Approved","OW071"
"2023-04-26 17:00",5.75183785034642,"Approved","OW071"
"2023-04-26 18:00",5.75088039782188,"Approved","OW071"
"2023-04-26 19:00",5.75225091329733,"Approved","OW071"
"2023-04-26 20:00",5.75430744577279,"Approved","OW071"
"2023-04-26 21:00",5.75119805224825,"Approved","OW071"
"2023-04-26 22:00",5.7526006447237,"Approved","OW071"
"2023-04-26 23:00",5.75233719919916,"Approved","OW071"
"2023-04-27 00:00",5.75299173367461,"Approved","OW071"
"2023-04-27 01:00",5.75232629015007,"Approved","OW071"
"2023-04-27 02:00",5.75398082362553,"Approved","OW071"
"2023-04-27 03:00",5.75384334910098,"Approved","OW071"
"2023-04-27 04:00",5.75381586257644,"Approved","OW071"
"2023-04-27 05:00",5.75663032805189,"Approved","OW071"
"2023-04-27 06:00",5.75707276252735,"Approved","OW071"
"2023-04-27 07:00",5.7534093170028,"Approved","OW071"
"2023-04-27 08:00",5.75290591647826,"Approved","OW071"
"2023-04-27 09:00",5.75310651195372,"Approved","OW071"
"2023-04-27 10:00",5.75118513242917,"Approved","OW071"
"2023-04-27 11:00",5.75042579590463,"Approved","OW071"
"2023-04-27 12:00",5.74851651538008,"Approved","OW071"
"2023-04-27 13:00",5.74760723485554,"Approved","OW071"
"2023-04-27 14:00",5.748925923331,"Approved","OW071"
"2023-04-27 15:00",5.74851464580645,"Approved","OW071"
"2023-04-27 16:00",5.74618738628191,"Approved","OW071"
"2023-04-27 17:00",5.74637810575736,"Approved","OW071"
"2023-04-27 18:00",5.74634485323282,"Approved","OW071"
"2023-04-27 19:00",5.74977752470827,"Approved","OW071"
"2023-04-27 20:00",5.75139610018373,"Approved","OW071"
"2023-04-27 21:00",5.74836073565919,"Approved","OW071"
"2023-04-27 22:00",5.74767742613464,"Approved","OW071"
"2023-04-27 23:00",5.7481520506101,"Approved","OW071"
"2023-04-28 00:00",5.74700669808555,"Approved","OW071"
"2023-04-28 01:00",5.74838731656101,"Approved","OW071"
"2023-04-28 02:00",5.74713597003647,"Approved","OW071"
"2023-04-28 03:00",5.74789661051192,"Approved","OW071"
"2023-04-28 04:00",5.74798122398738,"Approved","OW071"
"2023-04-28 05:00",5.74784186446283,"Approved","OW071"
"2023-04-28 06:00",5.74783446893829,"Approved","OW071"
"2023-04-28 07:00",5.74679910541374,"Approved","OW071"
"2023-04-28 08:00",5.7465337748892,"Approved","OW071"
"2023-04-28 09:00",5.74380451736466,"Approved","OW071"
"2023-04-28 10:00",5.74500722384011,"Approved","OW071"
"2023-04-28 11:00",5.74275399331557,"Approved","OW071"
"2023-04-28 12:00",5.74098478179102,"Approved","OW071"
"2023-04-28 13:00",5.74019559226648,"Approved","OW071"
"2023-04-28 14:00",5.74042837774194,"Approved","OW071"
"2023-04-28 15:00",5.73895117421739,"Approved","OW071"
"2023-04-28 16:00",5.73978995369285,"Approved","OW071"
"2023-04-28 17:00",5.7405726821683,"Approved","OW071"
"2023-04-28 18:00",5.74084742064376,"Approved","OW071"
"2023-04-28 19:00",5.74514002411922,"Approved","OW071"
"2023-04-28 20:00",5.74881653359467,"Approved","OW071"
"2023-04-28 21:00",5.74836107907013,"Approved","OW071"
"2023-04-28 22:00",5.74380174254558,"Approved","OW071"
"2023-04-28 23:00",5.74907425602104,"Approved","OW071"
"2023-04-29 00:00",5.74789682649649,"Approved","OW071"
"2023-04-29 01:00",5.74749742097195,"Approved","OW071"
"2023-04-29 02:00",5.74834196644741,"Approved","OW071"
"2023-04-29 03:00",5.75040848692286,"Approved","OW071"
"2023-04-29 04:00",5.75048100039832,"Approved","OW071"
"2023-04-29 05:00",5.75195151687377,"Approved","OW071"
"2023-04-29 06:00",5.75222203234923,"Approved","OW071"
"2023-04-29 07:00",5.75188056182468,"Approved","OW071"
"2023-04-29 08:00",5.75011711630014,"Approved","OW071"
"2023-04-29 09:00",5.7515576657756,"Approved","OW071"
"2023-04-29 10:00",5.74863029325105,"Approved","OW071"
"2023-04-29 11:00",5.74969692672651,"Approved","OW071"
"2023-04-29 12:00",5.74892760120196,"Approved","OW071"
"2023-04-29 13:00",5.75136626667742,"Approved","OW071"
"2023-04-29 14:00",5.75137896215287,"Approved","OW071"
"2023-04-29 15:00",5.75062173562833,"Approved","OW071"
"2023-04-29 16:00",5.75167449910379,"Approved","OW071"
"2023-04-29 17:00",5.75258919157924,"Approved","OW071"
"2023-04-29 18:00",5.7529599340547,"Approved","OW071"
"2023-04-29 19:00",5.75493056353015,"Approved","OW071"
"2023-04-29 20:00",5.75698509700561,"Approved","OW071"
"2023-04-29 21:00",5.75618369448107,"Approved","OW071"
"2023-04-29 22:00",5.75657230395652,"Approved","OW071"
"2023-04-29 23:00",5.75805891443198,"Approved","OW071"
"2023-04-30 00:00",5.75782954390743,"Approved","OW071"
"2023-04-30 01:00",5.75990616638289,"Approved","OW071"
"2023-04-30 02:00",5.75921674985835,"Approved","OW071"
"2023-04-30 03:00",5.7603333273338,"Approved","OW071"
"2023-04-30 04:00",5.76336788380926,"Approved","OW071"
"2023-04-30 05:00",5.76351442728471,"Approved","OW071"
"2023-04-30 06:00",5.76447295676017,"Approved","OW071"
"2023-04-30 07:00",5.76646145223562,"Approved","OW071"
"2023-04-30 08:00",5.76834195671108,"Approved","OW071"
"2023-04-30 09:00",5.76939649018654,"Approved","OW071"
"2023-04-30 10:00",5.76934503166199,"Approved","OW071"
"2023-04-30 11:00",5.76792964513745,"Approved","OW071"
"2023-04-30 12:00",5.7677082646129,"Approved","OW071"
"2023-04-30 13:00",5.76778288908836,"Approved","OW071"
"2023-04-30 14:00",5.76508759356381,"Approved","OW071"
"2023-04-30 15:00",5.76805622503927,"Approved","OW071"
"2023-04-30 16:00",5.77037479951473,"Approved","OW071"
"2023-04-30 17:00",5.77065142199018,"Approved","OW071"
"2023-04-30 18:00",5.77050207446564,"Approved","OW071"
"2023-04-30 19:00",5.77301465594109,"Approved","OW071"
"2023-04-30 20:00",5.77457118741655,"Approved","OW071"
"2023-04-30 21:00",5.77560374689201,"Approved","OW071"
"2023-04-30 22:00",5.77481832536746,"Approved","OW071"
"2023-04-30 23:00",5.77562491384292,"Approved","OW071"
"2023-05-01 00:00",5.77410153631837,"Approved","OW071"
"2023-05-01 01:00",5.77478415179383,"Approved","OW071"
"2023-05-01 02:00",5.77626277226928,"Approved","OW071"
"2023-05-01 03:00",5.77675937174474,"Approved","OW071"
"2023-05-01 04:00",5.7769459832202,"Approved","OW071"
"2023-05-01 05:00",5.77753459169565,"Approved","OW071"
"2023-05-01 06:00",5.78189312117111,"Approved","OW071"
"2023-05-01 07:00",5.78063167364656,"Approved","OW071"
"2023-05-01 08:00",5.77807633212202,"Approved","OW071"
"2023-05-01 09:00",5.78052898159748,"Approved","OW071"
"2023-05-01 10:00",5.77942957707293,"Approved","OW071"
"2023-05-01 11:00",5.77676824254839,"Approved","OW071"
"2023-05-01 12:00",5.77838093702384,"Approved","OW071"
"2023-05-01 13:00",5.7793455734993,"Approved","OW071"
"2023-05-01 14:00",5.77991819997475,"Approved","OW071"
"2023-05-01 15:00",5.77939282545021,"Approved","OW071"
"2023-05-01 16:00",5.77957544092567,"Approved","OW071"
"2023-05-01 17:00",5.78136604740112,"Approved","OW071"
"2023-05-01 18:00",5.77750471287658,"Approved","OW071"
"2023-05-01 19:00",5.77757733935203,"Approved","OW071"
"2023-05-01 20:00",5.77815995482749,"Approved","OW071"
"2023-05-01 21:00",5.77571859830295,"Approved","OW071"
"2023-05-01 22:00",5.7752812367784,"Approved","OW071"
"2023-05-01 23:00",5.78212566825386,"Approved","OW071"
"2023-05-02 00:00",5.76923037272931,"Approved","OW071"
"2023-05-02 01:00",5.77990088820477,"Approved","OW071"
"2023-05-02 02:00",5.78065930468022,"Approved","OW071"
"2023-05-02 03:00",5.76400219215568,"Approved","OW071"
"2023-05-02 04:00",5.77718480763114,"Approved","OW071"
"2023-05-02 05:00",5.77022347310659,"Approved","OW071"
"2023-05-02 06:00",5.77107212758205,"Approved","OW071"
"2023-05-02 07:00",5.7695127900575,"Approved","OW071"
"2023-05-02 08:00",5.76993347653296,"Approved","OW071"
"2023-05-02 09:00",5.76795616000842,"Approved","OW071"
"2023-05-02 10:00",5.76674887748387,"Approved","OW071"
"2023-05-02 11:00",5.76634159495933,"Approved","OW071"
"2023-05-02 12:00",5.76581833043478,"Approved","OW071"
"2023-05-02 13:00",5.76682303491024,"Approved","OW071"
"2023-05-02 14:00",5.76806170038569,"Approved","OW071"
"2023-05-02 15:00",5.77126828886115,"Approved","OW071"
"2023-05-02 16:00",5.77310883833661,"Approved","OW071"
"2023-05-02 17:00",5.77342541581206,"Approved","OW071"
"2023-05-02 18:00",5.77548394528752,"Approved","OW071"
"2023-05-02 19:00",5.77813037476297,"Approved","OW071"
"2023-05-02 20:00",5.77877480723843,"Approved","OW071"
"2023-05-02 21:00",5.77714132771388,"Approved","OW071"
"2023-05-02 22:00",5.77692782518934,"Approved","OW071"
"2023-05-02 23:00",5.7769822456648,"Approved","OW071"
"2023-05-03 00:00",5.77527873214025,"Approved","OW071"
"2023-05-03 01:00",5.77707122361571,"Approved","OW071"
"2023-05-03 02:00",5.77439778909116,"Approved","OW071"
"2023-05-03 03:00",5.77157840656662,"Approved","OW071"
"2023-05-03 04:00",5.76989298604208,"Approved","OW071"
"2023-05-03 05:00",5.76799158351753,"Approved","OW071"
"2023-05-03 06:00",5.76888818299299,"Approved","OW071"
"2023-05-03 07:00",5.76616081046844,"Approved","OW071"
"2023-05-03 08:00",5.7646094639439,"Approved","OW071"
"2023-05-03 09:00",5.76288819741935,"Approved","OW071"
"2023-05-03 10:00",5.76371487689481,"Approved","OW071"
"2023-05-03 11:00",5.76393156737027,"Approved","OW071"
"2023-05-03 12:00",5.76200830284572,"Approved","OW071"
"2023-05-03 13:00",5.76098304132118,"Approved","OW071"
"2023-05-03 14:00",5.75881183079663,"Approved","OW071"
"2023-05-03 15:00",5.75944661427209,"Approved","OW071"
"2023-05-03 16:00",5.76132335074755,"Approved","OW071"
"2023-05-03 17:00",5.762438043223,"Approved","OW071"
"2023-05-03 18:00",5.76492065869846,"Approved","OW071"
"2023-05-03 19:00",5.76623923317391,"Approved","OW071"
"2023-05-03 20:00",5.77045170164937,"Approved","OW071"
"2023-05-03 21:00",5.77241611112482,"Approved","OW071"
"2023-05-03 22:00",5.77012058860028,"Approved","OW071"
"2023-05-03 23:00",5.77163105907574,"Approved","OW071"
"2023-05-04 00:00",5.76742754555119,"Approved","OW071"
"2023-05-04 01:00",5.77179406602665,"Approved","OW071"
"2023-05-04 02:00",5.7622407225021,"Approved","OW071"
"2023-05-04 03:00",5.76014531297756,"Approved","OW071"
"2023-05-04 04:00",5.76497187845302,"Approved","OW071"
"2023-05-04 05:00",5.76315049892847,"Approved","OW071"
"2023-05-04 06:00",5.76534709840393,"Approved","OW071"
"2023-05-04 07:00",5.76158975987938,"Approved","OW071"
"2023-05-04 08:00",5.76548436135484,"Approved","OW071"
"2023-05-04 09:00",5.76333301583029,"Approved","OW071"
"2023-05-04 10:00",5.76095969430575,"Approved","OW071"
"2023-05-04 11:00",5.76040646478121,"Approved","OW071"
"2023-05-04 12:00",5.75923913625666,"Approved","OW071"
"2023-05-04 13:00",5.75924983373212,"Approved","OW071"
"2023-05-04 14:00",5.76118450420757,"Approved","OW071"
"2023-05-04 15:00",5.76345912868303,"Approved","OW071"
"2023-05-04 16:00",5.76297981415849,"Approved","OW071"
"2023-05-04 17:00",5.77082236163394,"Approved","OW071"
"2023-05-04 18:00",5.7730627981094,"Approved","OW071"
"2023-05-04 19:00",5.77093131658485,"Approved","OW071"
"2023-05-04 20:00",5.77436775806031,"Approved","OW071"
"2023-05-04 21:00",5.77425825053576,"Approved","OW071"
"2023-05-04 22:00",5.77110879001122,"Approved","OW071"
"2023-05-04 23:00",5.77049129148668,"Approved","OW071"
"2023-05-05 00:00",5.76452396396213,"Approved","OW071"
"2023-05-05 01:00",5.76682256143759,"Approved","OW071"
"2023-05-05 02:00",5.76515112491304,"Approved","OW071"
"2023-05-05 03:00",5.7678836843885,"Approved","OW071"
"2023-05-05 04:00",5.76888616386395,"Approved","OW071"
"2023-05-05 05:00",5.76544069733941,"Approved","OW071"
"2023-05-05 06:00",5.76477725181487,"Approved","OW071"
"2023-05-05 07:00",5.76475775629032,"Approved","OW071"
"2023-05-05 08:00",5.76292028176578,"Approved","OW071"
"2023-05-05 09:00",5.76249679024123,"Approved","OW071"
"2023-05-05 10:00",5.76330925871669,"Approved","OW071"
"2023-05-05 11:00",5.76359375919215,"Approved","OW071"
"2023-05-05 12:00",5.7631822546676,"Approved","OW071"
"2023-05-05 13:00",5.76408673214306,"Approved","OW071"
"2023-05-05 14:00",5.76237123161851,"Approved","OW071"
"2023-05-05 15:00",5.76128581109397,"Approved","OW071"
"2023-05-05 16:00",5.76334833556943,"Approved","OW071"
"2023-05-05 17:00",5.76210087204488,"Approved","OW071"
"2023-05-05 18:00",5.76145540652034,"Approved","OW071"
"2023-05-05 19:00",5.76182192699579,"Approved","OW071"
"2023-05-05 20:00",5.76220043347125,"Approved","OW071"
"2023-05-05 21:00",5.7592010289467,"Approved","OW071"
"2023-05-05 22:00",5.75997964842216,"Approved","OW071"
"2023-05-05 23:00",5.76140621489762,"Approved","OW071"
"2023-05-06 00:00",5.75968883037307,"Approved","OW071"
"2023-05-06 01:00",5.75987544084853,"Approved","OW071"
"2023-05-06 02:00",5.75904007732398,"Approved","OW071"
"2023-05-06 03:00",5.76135865179944,"Approved","OW071"
"2023-05-06 04:00",5.75954526327489,"Approved","OW071"
"2023-05-06 05:00",5.76022588075035,"Approved","OW071"
"2023-05-06 06:00",5.76217641922581,"Approved","OW071"
"2023-05-06 07:00",5.76382496070126,"Approved","OW071"
"2023-05-06 08:00",5.76272355817672,"Approved","OW071"
"2023-05-06 09:00",5.76295611665217,"Approved","OW071"
"2023-05-06 10:00",5.76295071912763,"Approved","OW071"
"2023-05-06 11:00",5.76485730760309,"Approved","OW071"
"2023-05-06 12:00",5.76816789107854,"Approved","OW071"
"2023-05-06 13:00",5.769586465554,"Approved","OW071"
"2023-05-06 14:00",5.76850903602945,"Approved","OW071"
"2023-05-06 15:00",5.76849564750491,"Approved","OW071"
"2023-05-06 16:00",5.76998625398036,"Approved","OW071"
"2023-05-06 17:00",5.77031082145582,"Approved","OW071"
"2023-05-06 18:00",5.77002340293128,"Approved","OW071"
"2023-05-06 19:00",5.76996794840673,"Approved","OW071"
"2023-05-06 20:00",5.76992048488219,"Approved","OW071"
"2023-05-06 21:00",5.76801508735764,"Approved","OW071"
"2023-05-06 22:00",5.7675356598331,"Approved","OW071"
"2023-05-06 23:00",5.76766022730856,"Approved","OW071"
"2023-05-07 00:00",5.76698879078401,"Approved","OW071"
"2023-05-07 01:00",5.76631136125947,"Approved","OW071"
"2023-05-07 02:00",5.76642194573492,"Approved","OW071"
"2023-05-07 03:00",5.76645650221038,"Approved","OW071"
"2023-05-07 04:00",5.76596708568584,"Approved","OW071"
"2023-05-07 05:00",5.76821762416129,"Approved","OW071"
"2023-05-07 06:00",5.76929413363675,"Approved","OW071"
"2023-05-07 07:00",5.7676426741122,"Approved","OW071"
"2023-05-07 08:00",5.76757723058766,"Approved","OW071"
"2023-05-07 09:00",5.76871178806311,"Approved","OW071"
"2023-05-07 10:00",5.76770439153857,"Approved","OW071"
"2023-05-07 11:00",5.76789699601403,"Approved","OW071"
"2023-05-07 12:00",5.76922356148948,"Approved","OW071"
"2023-05-07 13:00",5.77003614396494,"Approved","OW071"
"2023-05-07 14:00",5.76943873644039,"Approved","OW071"
"2023-05-07 15:00",5.76910736791585,"Approved","OW071"
"2023-05-07 16:00",5.7698620153913,"Approved","OW071"
"2023-05-07 17:00",5.77011466486676,"Approved","OW071"
"2023-05-07 18:00",5.76956531634222,"Approved","OW071"
"2023-05-07 19:00",5.76893994181767,"Approved","OW071"